1529496000.65,50929,21.38,74834.0,17.13,8.41,8.29,0,*40
1529496001.86,50930,21.38,74830.8,17.13,8.29,8.27,0,*48
1529496003.07,50931,21.38,74832.8,17.11,8.45,8.27,0,*41
1529496004.26,50932,21.38,74830.8,17.09,8.27,8.19,0,*42
1529496005.49,50933,21.38,74834.0,17.09,8.47,8.37,0,*49
1529496006.73,50934,21.38,74830.0,17.09,8.59,8.47,0,*46
1529496007.93,50935,21.38,74832.5,17.07,8.71,8.61,0,*47
1529496009.13,50936,21.38,74832.0,17.07,8.29,8.23,0,*4F
1529496010.34,50937,21.38,74832.3,17.05,8.27,8.19,0,*4B
1529496011.59,50938,21.38,74832.8,17.05,8.51,8.47,0,*4E
1529496012.84,50939,21.38,74830.5,17.05,8.47,8.41,0,*4E
1529496014.05,50940,21.38,74834.3,17.05,8.27,8.19,0,*4B
1529496015.26,50941,21.38,74830.8,17.01,8.27,8.15,0,*42
1529496016.45,50942,21.38,74828.5,16.99,8.01,8.01,0,*40
1529496017.68,50943,21.38,74828.5,16.99,7.87,7.87,0,*41
1529496018.91,50944,21.38,74834.0,16.99,7.91,7.87,0,*41
1529496020.14,50945,21.38,74834.8,16.95,7.87,7.87,0,*4B
1529496021.34,50946,21.38,74832.8,16.95,7.65,7.55,0,*4B
1529496022.54,50947,21.38,74832.0,16.95,7.33,7.19,0,*41
1529496023.73,50948,21.38,74834.0,16.91,7.79,7.79,0,*42
1529496024.92,50949,21.38,74828.8,16.91,8.15,8.15,0,*43
1529496026.14,50950,21.38,74828.3,16.91,8.37,8.27,0,*4A
1529496027.37,50951,21.38,74828.5,16.91,7.69,7.65,0,*46
1529496028.56,50952,21.38,74832.0,16.87,7.51,7.29,0,*41
1529496029.76,50953,21.38,74834.0,16.87,6.75,6.65,0,*4E
1529496030.98,50954,21.38,74830.8,16.83,7.29,7.15,0,*43
1529496032.16,50955,21.38,74834.5,16.83,7.05,7.01,0,*49
1529496033.37,50956,21.38,74830.8,16.77,7.33,7.29,0,*4E
1529496034.62,50957,21.38,74828.8,16.77,7.83,7.87,0,*40
1529496035.88,50958,21.38,74830.8,16.77,7.91,7.87,0,*4C
1529496037.13,50959,21.38,74830.0,16.77,7.87,7.87,0,*4A
1529496038.39,50960,21.38,74832.0,16.75,7.69,7.69,0,*42
1529496039.6,50961,21.38,74830.5,16.73,7.79,7.73,0,*4F
1529496040.79,50962,21.38,74830.8,16.73,8.15,8.09,0,*4B
1529496041.98,50963,21.38,74828.8,16.73,8.27,8.19,0,*4A
1529496043.18,50964,21.38,74832.3,16.73,8.29,8.27,0,*4E
1529496044.42,50965,21.38,74832.3,16.69,8.33,8.37,0,*4E
1529496045.65,50966,21.38,74830.3,16.71,8.05,8.13,0,*47
1529496046.83,50967,21.38,74834.5,16.69,8.05,8.01,0,*4C
1529496048.05,50968,21.38,74830.0,16.67,7.97,7.91,0,*4F
1529496049.31,50969,21.38,74830.0,16.67,7.91,7.87,0,*4F
1529496050.52,50970,21.38,74832.0,16.67,8.09,7.97,0,*48
1529496051.7,50971,21.38,74834.8,16.65,8.09,7.97,0,*4B
1529496052.96,50972,21.38,74834.5,16.67,8.41,8.33,0,*47
1529496054.14,50973,21.38,74832.5,16.65,7.97,7.97,0,*41
1529496055.4,50974,21.38,74834.8,16.63,7.91,7.73,0,*4C
1529496056.57,50975,21.38,74830.5,16.61,7.45,7.33,0,*42
1529496057.81,50976,21.38,74834.3,16.61,7.83,7.73,0,*4F
1529496058.99,50977,21.38,74830.3,16.61,8.23,8.15,0,*44
1529496060.21,50978,21.38,74832.5,16.55,8.15,8.05,0,*48
1529496061.47,50979,21.38,74832.8,16.59,7.91,7.91,0,*44
1529496062.73,50980,21.38,74834.0,16.59,7.91,7.91,0,*42
1529496063.99,50981,21.38,74834.3,16.55,7.77,7.65,0,*4C
1529496065.18,50982,21.38,74832.8,16.53,8.19,8.27,0,*47
1529496066.38,50983,21.38,74832.3,16.53,8.29,8.19,0,*48
1529496067.58,50984,21.38,74832.3,16.53,8.45,8.41,0,*48
1529496068.79,50985,21.38,74832.0,16.53,8.33,8.45,0,*4C
1529496070.05,50986,21.38,74832.5,16.51,8.29,8.29,0,*4C
1529496071.31,50987,21.38,74836.8,16.51,8.51,8.59,0,*45
1529496072.53,50988,21.38,74836.0,16.55,8.15,8.15,0,*46
1529496073.75,50989,21.38,74836.5,16.51,8.27,8.15,0,*42
1529496074.98,50990,21.38,74832.3,16.49,8.47,8.47,0,*42
1529496076.18,50991,21.38,74832.0,16.47,8.65,8.65,0,*4D
1529496077.42,50992,21.38,74834.5,16.49,8.59,8.59,0,*40
1529496078.68,50993,21.38,74834.8,16.51,8.51,8.47,0,*4F
1529496079.87,50994,21.38,74834.3,16.49,8.05,8.01,0,*42
1529496081.1,50995,21.38,74834.0,16.49,8.59,8.51,0,*4F
1529496082.34,50996,21.38,74836.5,16.49,8.59,8.59,0,*44
1529496083.58,50997,21.38,74834.8,16.49,8.47,8.47,0,*45
1529496084.82,50998,21.38,74832.5,16.47,7.79,7.77,0,*4A
1529496086.04,50999,21.38,74834.8,16.43,7.47,7.51,0,*46
1529496087.21,51000,21.38,74832.5,16.43,7.01,6.93,0,*43
1529496088.42,51001,21.38,74832.5,16.41,6.93,6.83,0,*4B
1529496089.62,51002,21.38,74832.5,16.41,7.33,7.33,0,*49
1529496090.84,51003,21.38,74832.0,16.39,8.13,8.09,0,*4C
1529496092.08,51004,21.38,74834.5,16.37,8.27,8.33,0,*4B
1529496093.27,51005,21.38,74834.3,16.39,8.79,8.87,0,*40
1529496094.51,51006,21.38,74832.3,16.37,8.89,9.03,0,*4F
1529496095.74,51007,21.38,74828.3,16.37,9.03,9.11,0,*4E
1529496096.96,51008,21.38,74834.0,16.39,8.47,8.45,0,*4E
1529496098.14,51009,21.38,74834.5,16.39,7.97,7.97,0,*4D
1529496099.33,51010,21.38,74832.0,16.39,8.23,8.15,0,*40
1529496100.54,51011,21.38,74832.8,16.39,8.27,8.33,0,*41
1529496101.8,51012,21.38,74832.8,16.37,8.75,8.75,0,*49
1529496103.07,51013,21.38,74832.8,16.33,8.89,9.01,0,*4D
1529496104.3,51014,21.38,74836.3,16.37,8.75,8.79,0,*43
1529496105.51,51015,21.38,74834.8,16.39,8.79,8.89,0,*4F
1529496106.75,51016,21.38,74832.8,16.37,8.93,9.03,0,*45
1529496108.01,51017,21.38,74836.3,16.37,7.87,7.69,0,*4C
1529496109.2,51018,21.38,74832.8,16.39,7.59,7.55,0,*41
1529496110.42,51019,21.38,74834.3,16.33,7.29,7.37,0,*49
1529496111.64,51020,21.38,74832.5,16.33,7.55,7.51,0,*48
1529496112.88,51021,21.38,74834.8,16.33,7.09,7.19,0,*4C
1529496114.06,51022,21.38,74836.5,16.31,7.51,7.51,0,*4C
1529496115.3,51023,21.38,74836.8,16.29,8.01,7.87,0,*45
1529496116.56,51024,21.38,74834.5,16.29,7.91,7.87,0,*44
1529496117.75,51025,21.38,74834.3,16.31,8.27,8.19,0,*46
1529496119.01,51026,21.38,74832.0,16.29,7.69,7.65,0,*4D
1529496120.25,51027,21.38,74834.3,16.29,7.29,7.23,0,*4A
1529496121.44,51028,21.38,74832.0,16.27,7.01,6.97,0,*4F
1529496122.67,51029,21.38,74834.3,16.23,6.53,6.51,0,*46
1529496123.89,51030,21.38,74832.3,16.27,7.55,7.47,0,*4B
1529496125.12,51031,21.38,74836.8,16.23,7.87,7.83,0,*49
1529496126.34,51032,21.38,74832.5,16.27,8.27,8.33,0,*4F
1529496127.54,51033,21.38,74834.5,16.23,8.23,8.45,0,*4F
1529496128.8,51034,21.38,74834.8,16.29,8.33,8.37,0,*46
1529496130.02,51035,21.38,74836.3,16.29,8.15,8.15,0,*43
1529496131.23,51036,21.38,74836.5,16.27,7.65,7.55,0,*4D
1529496132.48,51037,21.38,74834.0,16.27,7.77,7.69,0,*40
1529496133.71,51038,21.38,74832.0,16.27,7.47,7.47,0,*40
1529496134.92,51039,21.38,74834.8,16.27,7.97,7.91,0,*47
1529496136.17,51040,21.38,74832.0,16.27,8.13,8.13,0,*4F
1529496137.4,51041,21.38,74832.8,16.29,8.75,8.65,0,*41
1529496138.61,51042,21.38,74836.3,16.29,8.45,8.27,0,*47
1529496139.82,51043,21.38,74838.3,16.31,8.37,8.15,0,*4B
1529496141.06,51044,21.38,74838.5,16.29,8.05,7.77,0,*4F
1529496142.27,51045,21.38,74834.5,16.33,8.61,8.45,0,*49
1529496143.51,51046,21.38,74838.3,16.31,8.59,8.47,0,*41
1529496144.75,51047,21.38,74832.0,16.33,8.61,8.51,0,*4E
1529496145.96,51048,21.38,74836.5,16.37,8.87,8.79,0,*47
1529496147.2,51049,21.38,74832.5,16.37,8.15,7.91,0,*44
1529496148.43,51050,21.38,74832.8,16.37,8.37,8.15,0,*4F
1529496149.64,51051,21.38,74834.5,16.37,8.65,8.45,0,*4C
1529496150.85,51052,21.38,74832.8,16.39,8.47,8.23,0,*41
1529496152.09,51053,21.38,74834.8,16.41,8.19,7.95,0,*46
1529496153.32,51054,21.38,74834.3,16.41,9.25,8.97,0,*42
1529496154.56,51055,21.38,74832.3,16.41,8.93,8.79,0,*4F
1529496155.76,51056,21.38,74832.5,16.45,9.21,8.97,0,*40
1529496157.01,51057,21.38,74832.5,16.45,9.49,9.19,0,*48
1529496158.2,51058,21.38,74834.8,16.49,9.47,9.07,0,*4A
1529496159.39,51059,21.38,74834.8,16.49,9.07,8.69,0,*46
1529496160.6,51060,21.38,74832.5,16.53,8.87,8.51,0,*45
1529496161.83,51061,21.38,74834.8,16.53,9.49,9.11,0,*42
1529496163.04,51062,21.38,74832.0,16.53,9.75,9.49,0,*43
1529496164.29,51063,21.38,74834.8,16.59,10.03,9.81,0,*75
1529496165.49,51064,21.38,74834.5,16.61,9.91,9.89,0,*42
1529496166.72,51065,21.38,74836.0,16.63,9.71,9.61,0,*49
1529496167.96,51066,21.38,74836.5,16.67,9.33,9.19,0,*47
1529496169.14,51067,21.38,74834.8,16.69,9.29,9.25,0,*4C
1529496170.35,51068,21.38,74834.0,16.69,9.11,9.03,0,*4C
1529496171.58,51069,21.38,74832.0,16.71,9.03,9.11,0,*44
1529496172.84,51070,21.38,74832.3,16.75,10.37,10.57,0,*4D
1529496174.07,51071,21.38,74832.8,16.81,11.47,11.85,0,*4F
1529496175.33,51072,21.38,74830.0,16.85,10.75,10.95,0,*48
1529496176.58,51073,21.38,74832.0,16.89,10.75,10.89,0,*48
1529496177.82,51074,21.38,74830.0,16.93,10.03,10.31,0,*46
1529496179.08,51075,21.38,74832.0,16.93,10.27,10.61,0,*44
1529496180.3,51076,21.38,74830.8,16.99,10.43,10.79,0,*46
1529496181.5,51077,21.38,74828.8,16.99,10.03,10.33,0,*4D
1529496182.74,51078,21.38,74834.0,17.01,9.47,9.81,0,*4B
1529496183.97,51079,21.38,74832.5,17.07,9.49,9.77,0,*4B
1529496185.15,51080,21.38,74832.0,17.07,9.29,9.67,0,*4A
1529496186.35,51081,21.38,74834.5,17.07,8.83,9.19,0,*43
1529496187.53,51082,21.38,74832.0,17.07,8.83,9.29,0,*43
1529496188.74,51083,21.38,74834.5,17.11,9.21,9.67,0,*46
1529496189.96,51084,21.38,74830.3,17.11,9.67,10.09,0,*73
1529496191.17,51085,21.38,74834.8,17.11,9.33,9.71,0,*44
1529496192.38,51086,21.38,74834.3,17.11,9.63,9.91,0,*4C
1529496193.61,51087,21.38,74830.5,17.13,8.97,9.39,0,*47
1529496194.81,51088,21.38,74834.8,17.13,9.61,9.91,0,*42
1529496196.02,51089,21.38,74832.3,17.15,9.33,9.63,0,*4F
1529496197.26,51090,21.38,74834.5,17.15,9.39,9.67,0,*49
1529496198.52,51091,21.38,74832.0,17.15,9.53,9.77,0,*45
1529496199.71,51092,21.38,74832.5,17.13,9.91,10.05,0,*73
1529496200.92,51093,21.38,74832.3,17.13,8.93,8.83,0,*46
1529496202.13,51094,21.38,74834.3,17.13,9.03,9.15,0,*47
1529496203.39,51095,21.38,74834.5,17.15,9.49,9.57,0,*48
1529496204.58,51096,21.38,74834.8,17.13,9.67,9.67,0,*42
1529496205.81,51097,21.38,74834.3,17.13,8.89,8.89,0,*43
1529496207.0,51098,21.38,74830.8,17.13,8.83,8.83,0,*4C
1529496208.21,51099,21.38,74830.8,17.13,9.07,9.19,0,*42
1529496209.39,51100,21.38,74832.5,17.13,9.25,9.29,0,*40
1529496210.65,51101,21.38,74830.5,17.11,9.11,9.11,0,*4F
1529496211.83,51102,21.38,74832.5,17.09,9.03,9.03,0,*45
1529496213.04,51103,21.38,74832.0,17.09,8.89,8.79,0,*4B
1529496214.27,51104,21.38,74836.3,17.11,8.33,8.23,0,*4B
1529496215.47,51105,21.38,74832.5,17.07,8.45,8.29,0,*46
1529496216.67,51106,21.38,74834.5,17.05,8.69,8.69,0,*4D
1529496217.92,51107,21.38,74830.8,17.05,8.97,8.97,0,*4C
1529496219.15,51108,21.38,74832.8,17.05,8.93,8.87,0,*46
1529496220.38,51109,21.38,74832.0,17.01,8.97,9.03,0,*4A
1529496221.63,51110,21.38,74832.3,17.01,8.97,8.93,0,*4A
1529496222.89,51111,21.38,74832.5,17.01,8.41,8.37,0,*4E
1529496224.08,51112,21.38,74832.5,16.99,9.03,9.03,0,*4C
1529496225.33,51113,21.38,74832.5,17.01,9.19,9.15,0,*41
1529496226.55,51114,21.38,74832.0,17.01,8.71,8.61,0,*4B
1529496227.77,51115,21.38,74830.3,16.99,8.83,9.01,0,*40
1529496229.03,51116,21.38,74830.3,16.97,8.89,9.01,0,*47
1529496230.26,51117,21.38,74834.3,16.97,8.65,8.71,0,*42
1529496231.47,51118,21.38,74834.0,16.97,8.19,8.23,0,*41
1529496232.65,51119,21.38,74834.8,16.95,8.45,8.45,0,*4B
1529496233.86,51120,21.38,74832.3,16.95,8.79,8.89,0,*4E
1529496235.07,51121,21.38,74830.8,16.93,8.83,9.03,0,*4F
1529496236.27,51122,21.38,74832.5,16.93,8.69,8.83,0,*41
1529496237.52,51123,21.38,74832.3,16.93,8.29,8.41,0,*4A
1529496238.75,51124,21.38,74834.0,16.93,8.59,8.69,0,*40
1529496239.96,51125,21.38,74828.5,16.91,8.83,8.93,0,*41
1529496241.17,51126,21.38,74834.0,16.91,9.11,9.25,0,*44
1529496242.41,51127,21.38,74834.0,16.91,8.33,8.37,0,*46
1529496243.62,51128,21.38,74832.5,16.91,8.45,8.47,0,*4F
1529496244.82,51129,21.38,74832.5,16.91,9.11,9.25,0,*4B
1529496246.03,51130,21.38,74832.8,16.91,9.15,9.21,0,*43
1529496247.27,51131,21.38,74832.8,16.89,8.87,8.97,0,*4D
1529496248.51,51132,21.38,74834.0,16.91,8.89,9.01,0,*47
1529496249.72,51133,21.38,74834.8,16.91,8.71,8.83,0,*4A
1529496250.96,51134,21.38,74834.3,16.89,8.87,9.01,0,*46
1529496252.21,51135,21.38,74832.8,16.89,8.87,8.89,0,*46
1529496253.44,51136,21.38,74832.3,16.89,7.65,7.55,0,*48
1529496254.65,51137,21.38,74832.0,16.89,7.33,7.29,0,*41
1529496255.9,51138,21.38,74834.8,16.85,6.73,6.73,0,*49
1529496257.12,51139,21.38,74834.3,16.83,7.59,7.61,0,*45
1529496258.3,51140,21.38,74834.3,16.83,8.05,8.05,0,*40
1529496259.56,51141,21.38,74834.3,16.81,7.91,7.95,0,*47
1529496260.81,51142,21.38,74834.8,16.77,7.55,7.61,0,*4E
1529496262.07,51143,21.38,74830.5,16.77,7.61,7.61,0,*48
1529496263.31,51144,21.38,74830.8,16.77,7.23,7.29,0,*45
1529496264.49,51145,21.38,74834.5,16.73,7.41,7.51,0,*4B
1529496265.75,51146,21.38,74832.5,16.75,7.19,7.19,0,*4F
1529496266.95,51147,21.38,74832.8,16.71,7.33,7.37,0,*4E
1529496268.13,51148,21.38,74832.3,16.69,7.45,7.55,0,*4D
1529496269.37,51149,21.38,74832.0,16.69,7.83,7.95,0,*4A
1529496270.55,51150,21.38,74830.8,16.69,7.79,7.79,0,*45
1529496271.79,51151,21.38,74828.5,16.65,7.87,7.95,0,*4B
1529496273.0,51152,21.38,74834.8,16.65,8.27,8.37,0,*4A
1529496274.17,51153,21.38,74832.0,16.65,8.65,8.65,0,*4A
1529496275.4,51154,21.38,74834.8,16.65,8.29,8.37,0,*42
1529496276.64,51155,21.38,74838.3,16.65,8.55,8.71,0,*4A
1529496277.87,51156,21.38,74832.0,16.67,8.65,8.75,0,*4C
1529496279.11,51157,21.38,74832.0,16.67,8.19,8.33,0,*44
1529496280.32,51158,21.38,74834.8,16.67,7.79,7.97,0,*43
1529496281.55,51159,21.38,74832.8,16.65,7.83,7.77,0,*4B
1529496282.81,51160,21.38,74832.8,16.63,7.11,7.11,0,*4C
1529496284.04,51161,21.38,74836.0,16.61,6.43,6.53,0,*4E
1529496285.3,51162,21.38,74832.0,16.55,6.51,6.73,0,*4B
1529496286.53,51163,21.38,74834.8,16.55,6.97,7.19,0,*4D
1529496287.78,51164,21.38,74836.0,16.51,7.27,7.59,0,*40
1529496289.05,51165,21.38,74836.0,16.51,7.61,7.69,0,*40
1529496290.23,51166,21.38,74832.0,16.49,7.37,7.55,0,*46
1529496291.47,51167,21.38,74834.5,16.49,7.15,7.27,0,*42
1529496292.7,51168,21.38,74836.0,16.47,6.75,6.87,0,*4F
1529496293.88,51169,21.38,74836.0,16.43,6.93,7.01,0,*4D
1529496295.1,51170,21.38,74836.0,16.43,6.13,6.21,0,*4E
1529496296.28,51171,21.38,74838.5,16.39,6.75,6.79,0,*4F
1529496297.46,51172,21.38,74836.5,16.39,7.01,6.97,0,*4E
1529496298.72,51173,21.38,74834.8,16.37,6.87,6.91,0,*48
1529496299.94,51174,21.38,74832.3,16.33,6.97,6.93,0,*48
1529496301.18,51175,21.38,74834.0,16.31,6.43,6.35,0,*4E
1529496302.45,51176,21.38,74834.0,16.29,6.57,6.51,0,*43
1529496303.64,51177,21.38,74832.0,16.27,6.79,6.79,0,*4A
1529496304.87,51178,21.38,74834.3,16.23,6.65,6.73,0,*46
1529496306.08,51179,21.38,74832.0,16.23,7.09,7.15,0,*4D
1529496307.27,51180,21.38,74834.8,16.19,6.79,6.79,0,*4F
1529496308.48,51181,21.38,74832.3,16.19,6.87,6.79,0,*4F
1529496309.68,51182,21.38,74832.8,16.19,6.21,6.21,0,*4D
1529496310.92,51183,21.38,74834.8,16.15,6.43,6.39,0,*4D
1529496312.12,51184,21.38,74832.5,16.15,6.75,6.73,0,*41
1529496313.34,51185,21.38,74832.0,16.11,6.57,6.57,0,*42
1529496314.51,51186,21.38,74832.5,16.11,6.79,6.79,0,*41
1529496315.71,51187,21.38,74836.3,16.11,6.79,6.73,0,*4A
1529496316.96,51188,21.38,74832.3,16.05,7.23,7.19,0,*43
1529496318.22,51189,21.38,74832.8,16.05,7.61,7.73,0,*48
1529496319.46,51190,21.38,74834.0,16.05,7.65,7.65,0,*43
1529496320.66,51191,21.38,74832.5,16.05,8.09,8.23,0,*4A
1529496321.89,51192,21.38,74834.8,16.05,8.33,8.45,0,*40
1529496323.14,51193,21.38,74832.8,16.05,8.51,8.55,0,*44
1529496324.36,51194,21.38,74834.3,16.05,8.75,8.79,0,*4B
1529496325.56,51195,21.38,74832.0,16.07,8.89,8.83,0,*4E
1529496326.79,51196,21.38,74834.8,16.07,8.93,9.01,0,*4D
1529496327.97,51197,21.38,74836.5,16.07,8.79,8.79,0,*46
1529496329.19,51198,21.38,74836.0,16.07,9.11,9.11,0,*49
1529496330.41,51199,21.38,74836.3,16.11,8.75,8.75,0,*4F
1529496331.68,51200,21.38,74832.8,16.13,8.93,8.93,0,*4E
1529496332.89,51201,21.38,74834.8,16.11,8.87,8.93,0,*48
1529496334.1,51202,21.38,74834.8,16.11,9.07,9.19,0,*41
1529496335.36,51203,21.38,74836.5,16.13,9.39,9.39,0,*4D
1529496336.54,51204,21.38,74836.3,16.15,9.29,9.29,0,*4C
1529496337.76,51205,21.38,74834.0,16.15,9.35,9.43,0,*4C
1529496338.96,51206,21.38,74836.0,16.15,9.11,9.29,0,*45
1529496340.18,51207,21.38,74838.8,16.17,8.87,8.87,0,*4D
1529496341.42,51208,21.38,74834.5,16.15,9.11,9.19,0,*48
1529496342.63,51209,21.38,74834.5,16.17,9.29,9.33,0,*48
1529496343.86,51210,21.38,74834.8,16.17,9.33,9.35,0,*4D
1529496345.09,51211,21.38,74836.5,16.19,9.47,9.49,0,*4A
1529496346.33,51212,21.38,74838.0,16.21,9.75,9.81,0,*47
1529496347.56,51213,21.38,74834.3,16.21,9.25,9.35,0,*4C
1529496348.77,51214,21.38,74832.3,16.21,8.83,8.87,0,*4E
1529496350.0,51215,21.38,74836.3,16.19,8.79,8.89,0,*4F
1529496351.23,51216,21.38,74834.8,16.21,8.61,8.71,0,*49
1529496352.46,51217,21.38,74836.0,16.21,9.15,9.25,0,*4A
1529496353.69,51218,21.38,74832.8,16.21,9.29,9.35,0,*4B
1529496354.92,51219,21.38,74836.5,16.21,9.25,9.35,0,*46
1529496356.13,51220,21.38,74834.3,16.23,9.29,9.39,0,*4E
1529496357.37,51221,21.38,74834.3,16.23,8.97,9.01,0,*40
1529496358.58,51222,21.38,74832.5,16.23,8.79,8.89,0,*42
1529496359.78,51223,21.38,74832.5,16.23,8.79,8.87,0,*4D
1529496361.02,51224,21.38,74834.8,16.23,8.41,8.51,0,*4A
1529496362.23,51225,21.38,74834.3,16.23,9.01,9.07,0,*4C
1529496363.45,51226,21.38,74834.3,16.23,9.19,9.07,0,*46
1529496364.66,51227,21.38,74836.5,16.23,8.75,8.79,0,*44
1529496365.85,51228,21.38,74832.3,16.23,8.45,8.45,0,*47
1529496367.05,51229,21.38,74832.8,16.21,8.09,8.15,0,*49
1529496368.24,51230,21.38,74832.5,16.19,8.09,8.15,0,*4A
1529496369.5,51231,21.38,74834.8,16.21,7.47,7.47,0,*4D
1529496370.72,51232,21.38,74832.8,16.19,7.47,7.59,0,*4A
1529496371.98,51233,21.38,74834.3,16.17,7.65,7.77,0,*49
1529496373.19,51234,21.38,74832.0,16.17,7.45,7.41,0,*49
1529496374.45,51235,21.38,74834.5,16.17,7.73,7.83,0,*43
1529496375.68,51236,21.38,74834.3,16.13,7.51,7.47,0,*4C
1529496376.92,51237,21.38,74832.5,16.13,7.87,7.97,0,*4B
1529496378.17,51238,21.38,74832.0,16.13,7.47,7.47,0,*45
1529496379.4,51239,21.38,74832.5,16.11,7.15,7.11,0,*42
1529496380.6,51240,21.38,74830.3,16.11,6.73,6.79,0,*42
1529496381.85,51241,21.38,74834.3,16.05,7.11,7.19,0,*44
1529496383.08,51242,21.38,74834.3,16.05,7.79,7.91,0,*49
1529496384.27,51243,21.38,74830.3,16.03,7.87,7.97,0,*49
1529496385.45,51244,21.38,74830.8,16.03,8.05,8.15,0,*4E
1529496386.64,51245,21.38,74830.0,16.01,8.09,8.15,0,*41
1529496387.84,51246,21.38,74834.3,16.01,7.59,7.51,0,*47
1529496389.1,51247,21.38,74832.8,16.01,7.73,7.69,0,*45
1529496390.29,51248,21.38,74832.3,16.01,8.05,8.09,0,*4D
1529496391.49,51249,21.38,74832.0,16.01,8.09,8.15,0,*4D
1529496392.7,51250,21.38,74834.0,15.99,7.95,8.05,0,*4C
1529496393.87,51251,21.38,74834.0,15.99,8.01,8.05,0,*4F
1529496395.07,51252,21.38,74832.8,15.97,8.65,8.65,0,*46
1529496396.29,51253,21.38,74834.3,15.99,8.47,8.47,0,*49
1529496397.47,51254,21.38,74832.0,15.99,8.61,8.61,0,*4E
1529496398.72,51255,21.38,74832.0,15.97,8.89,8.89,0,*41
1529496399.91,51256,21.38,74832.0,15.99,9.07,9.07,0,*4C
1529496401.13,51257,21.38,74832.0,15.99,8.71,8.71,0,*4D
1529496402.33,51258,21.38,74834.8,15.99,8.71,8.79,0,*4A
1529496403.51,51259,21.38,74830.8,15.99,8.61,8.69,0,*4B
1529496404.76,51260,21.38,74832.3,15.97,8.55,8.59,0,*4B
1529496405.97,51261,21.38,74834.0,15.99,8.83,8.89,0,*42
1529496407.22,51262,21.38,74832.8,16.01,9.19,9.19,0,*49
1529496408.45,51263,21.38,74832.5,15.99,9.35,9.35,0,*4A
1529496409.69,51264,21.38,74834.0,16.01,9.15,9.15,0,*4F
1529496410.93,51265,21.38,74834.5,16.01,8.97,8.97,0,*4E
1529496412.15,51266,21.38,74836.5,16.03,8.75,8.75,0,*4F
1529496413.35,51267,21.38,74834.8,16.03,8.71,8.65,0,*4B
1529496414.59,51268,21.38,74836.0,16.01,8.93,8.97,0,*47
1529496415.81,51269,21.38,74834.8,16.01,9.33,9.39,0,*48
1529496416.98,51270,21.38,74832.3,16.03,9.21,9.29,0,*40
1529496418.15,51271,21.38,74838.0,16.03,9.21,9.29,0,*41
1529496419.39,51272,21.38,74836.8,16.01,9.15,9.15,0,*48
1529496420.62,51273,21.38,74832.0,16.03,8.97,8.93,0,*4F
1529496421.86,51274,21.38,74836.3,16.03,8.55,8.55,0,*4C
1529496423.08,51275,21.38,74834.5,16.03,8.29,8.41,0,*43
1529496424.32,51276,21.38,74836.3,16.01,8.93,8.97,0,*48
1529496425.54,51277,21.38,74836.5,16.03,9.53,9.61,0,*4E
1529496426.77,51278,21.38,74832.8,16.03,9.39,9.49,0,*47
1529496427.94,51279,21.38,74834.3,16.03,9.29,9.33,0,*4A
1529496429.16,51280,21.38,74834.3,16.05,9.53,9.63,0,*42
1529496430.4,51281,21.38,74832.8,16.07,9.81,9.81,0,*42
1529496431.66,51282,21.38,74834.0,16.05,9.53,9.53,0,*43
1529496432.88,51283,21.38,74836.8,16.07,8.93,9.01,0,*4A
1529496434.11,51284,21.38,74834.0,16.07,8.59,8.59,0,*47
1529496435.33,51285,21.38,74836.5,16.07,9.11,9.11,0,*46
1529496436.56,51286,21.38,74834.3,16.05,8.45,8.55,0,*46
1529496437.78,51287,21.38,74832.0,16.05,8.45,8.55,0,*47
1529496438.99,51288,21.38,74832.5,16.07,9.39,9.47,0,*42
1529496440.17,51289,21.38,74834.5,16.07,9.03,9.21,0,*4A
1529496441.37,51290,21.38,74838.3,16.05,9.33,9.43,0,*47
1529496442.61,51291,21.38,74832.8,16.07,9.81,9.81,0,*43
1529496443.81,51292,21.38,74838.5,16.07,9.89,9.95,0,*4D
1529496445.0,51293,21.38,74834.0,16.07,9.91,10.05,0,*74
1529496446.27,51294,21.38,74832.5,16.13,9.81,9.85,0,*47
1529496447.48,51295,21.38,74838.3,16.13,9.71,9.71,0,*42
1529496448.75,51296,21.38,74834.3,16.13,9.81,9.85,0,*45
1529496449.96,51297,21.38,74834.0,16.15,9.89,9.95,0,*4B
1529496451.15,51298,21.38,74832.5,16.15,9.95,9.99,0,*45
1529496452.37,51299,21.38,74834.5,16.17,9.99,10.09,0,*7B
1529496453.58,51300,21.38,74834.8,16.17,9.75,9.95,0,*45
1529496454.8,51301,21.38,74834.8,16.19,9.67,9.81,0,*4C
1529496456.04,51302,21.38,74832.0,16.19,9.39,9.39,0,*47
1529496457.28,51303,21.38,74834.3,16.19,9.61,9.77,0,*41
1529496458.5,51304,21.38,74832.8,16.21,10.03,10.17,0,*4F
1529496459.75,51305,21.38,74832.0,16.21,10.09,10.19,0,*4A
1529496461.01,51306,21.38,74834.0,16.21,10.05,10.19,0,*45
1529496462.24,51307,21.38,74832.8,16.23,10.13,10.23,0,*48
1529496463.44,51308,21.38,74832.8,16.27,9.99,10.09,0,*71
1529496464.65,51309,21.38,74832.0,16.27,9.57,9.67,0,*42
1529496465.89,51310,21.38,74834.0,16.27,9.49,9.61,0,*43
1529496467.14,51311,21.38,74832.5,16.29,9.43,9.49,0,*4C
1529496468.36,51312,21.38,74834.0,16.29,9.91,10.09,0,*7C
1529496469.62,51313,21.38,74832.8,16.29,10.13,10.23,0,*47
1529496470.85,51314,21.38,74830.8,16.31,10.17,10.27,0,*49
1529496472.08,51315,21.38,74834.8,16.33,10.33,10.43,0,*4E
1529496473.35,51316,21.38,74828.3,16.37,10.19,10.23,0,*47
1529496474.6,51317,21.38,74832.5,16.37,10.37,10.55,0,*4B
1529496475.86,51318,21.38,74834.0,16.37,10.37,10.65,0,*47
1529496477.08,51319,21.38,74830.5,16.37,10.33,10.43,0,*46
1529496478.28,51320,21.38,74832.5,16.39,10.55,10.69,0,*4A
1529496479.53,51321,21.38,74834.3,16.41,10.31,10.47,0,*4A
1529496480.78,51322,21.38,74832.3,16.43,10.27,10.27,0,*4A
1529496481.97,51323,21.38,74834.3,16.43,9.95,10.17,0,*79
1529496483.18,51324,21.38,74830.0,16.43,10.51,10.57,0,*4A
1529496484.43,51325,21.38,74828.5,16.43,10.37,10.27,0,*4C
1529496485.65,51326,21.38,74836.3,16.43,9.47,9.49,0,*40
1529496486.9,51327,21.38,74832.3,16.45,9.49,9.53,0,*42
1529496488.13,51328,21.38,74830.5,16.45,10.17,10.19,0,*48
1529496489.37,51329,21.38,74830.5,16.45,9.85,9.89,0,*4B
1529496490.62,51330,21.38,74828.8,16.47,10.23,10.33,0,*4C
1529496491.82,51331,21.38,74832.8,16.49,9.91,10.03,0,*71
1529496493.03,51332,21.38,74828.5,16.49,10.51,10.61,0,*42
1529496494.31,51333,21.38,74832.5,16.51,10.61,10.71,0,*48
1529496495.51,51334,21.38,74834.5,16.53,11.13,11.13,0,*4C
1529496496.73,51335,21.38,74834.0,16.53,11.41,11.51,0,*4C
1529496497.96,51336,21.38,74832.3,16.55,11.47,11.51,0,*4F
1529496499.22,51337,21.38,74830.0,16.59,11.45,11.55,0,*44
1529496500.46,51338,21.38,74832.5,16.65,11.61,11.67,0,*43
1529496501.68,51339,21.38,74830.0,16.65,11.07,10.93,0,*48
1529496502.96,51340,21.38,74828.5,16.67,11.41,11.41,0,*48
1529496504.2,51341,21.38,74834.3,16.67,11.81,11.75,0,*42
1529496505.41,51342,21.38,74834.0,16.73,12.05,11.93,0,*43
1529496506.65,51343,21.38,74834.3,16.75,11.93,11.71,0,*44
1529496507.92,51344,21.38,74828.5,16.77,11.75,11.61,0,*48
1529496509.19,51345,21.38,74834.8,16.81,12.05,11.95,0,*4F
1529496510.43,51346,21.38,74832.3,16.85,12.37,12.23,0,*47
1529496511.67,51347,21.38,74832.5,16.89,12.57,12.47,0,*4E
1529496512.93,51348,21.38,74828.3,16.93,12.63,12.57,0,*4C
1529496514.18,51349,21.38,74832.8,16.97,12.61,12.57,0,*4B
1529496515.42,51350,21.38,74832.3,17.01,12.95,12.87,0,*4B
1529496516.68,51351,21.38,74832.5,17.05,12.83,12.83,0,*4D
1529496517.93,51352,21.38,74830.0,17.13,12.97,13.05,0,*43
1529496519.19,51353,21.38,74830.8,17.15,13.01,13.21,0,*4C
1529496520.43,51354,21.38,74830.8,17.19,12.29,12.47,0,*4D
1529496521.68,51355,21.38,74828.3,17.21,11.33,11.27,0,*4A